Year,Month,Day,Hour,Minute,Value (Times are PST for temperature in C)
2020,07,26,00,00,13.40
2020,07,26,00,01,13.40
2020,07,26,00,02,13.30
2020,07,26,00,03,13.30
2020,07,26,00,04,13.30
2020,07,26,00,05,13.30
2020,07,26,00,06,13.30
2020,07,26,00,07,13.20
2020,07,26,00,08,13.20
2020,07,26,00,09,13.20
2020,07,26,00,10,13.20
2020,07,26,00,11,13.10
2020,07,26,00,12,13.10
2020,07,26,00,13,13.10
2020,07,26,00,14,13.10
2020,07,26,00,15,13.10
2020,07,26,00,16,13.10
2020,07,26,00,17,13.00
2020,07,26,00,18,13.00
2020,07,26,00,19,12.90
2020,07,26,00,20,12.90
2020,07,26,00,21,12.90
2020,07,26,00,22,12.90
2020,07,26,00,23,12.90
2020,07,26,00,24,12.90
2020,07,26,00,25,12.80
2020,07,26,00,26,12.80
2020,07,26,00,27,12.80
2020,07,26,00,28,12.80
2020,07,26,00,29,12.80
2020,07,26,00,30,12.80
2020,07,26,00,31,12.80
2020,07,26,00,32,12.80
2020,07,26,00,33,12.80
2020,07,26,00,34,12.80
2020,07,26,00,35,12.80
2020,07,26,00,36,12.80
2020,07,26,00,37,12.70
2020,07,26,00,38,12.70
2020,07,26,00,39,12.70
2020,07,26,00,40,12.70
2020,07,26,00,41,12.70
2020,07,26,00,42,12.70
2020,07,26,00,43,12.70
2020,07,26,00,44,12.70
2020,07,26,00,45,12.70
2020,07,26,00,46,12.70
2020,07,26,00,47,12.70
2020,07,26,00,48,12.70
2020,07,26,00,49,12.70
2020,07,26,00,50,12.70
2020,07,26,00,51,12.70
2020,07,26,00,52,12.80
2020,07,26,00,53,12.80
2020,07,26,00,54,12.80
2020,07,26,00,55,12.80
2020,07,26,00,56,12.80
2020,07,26,00,57,12.80
2020,07,26,00,58,12.80
2020,07,26,00,59,12.80
2020,07,26,01,00,12.80
2020,07,26,01,01,12.80
2020,07,26,01,02,12.80
2020,07,26,01,03,12.80
2020,07,26,01,04,12.70
2020,07,26,01,05,12.70
2020,07,26,01,06,12.70
2020,07,26,01,07,12.70
2020,07,26,01,08,12.70
2020,07,26,01,09,12.70
2020,07,26,01,10,12.70
2020,07,26,01,11,12.70
2020,07,26,01,12,12.70
2020,07,26,01,13,12.70
2020,07,26,01,14,12.70
2020,07,26,01,15,12.70
2020,07,26,01,16,12.60
2020,07,26,01,17,12.60
2020,07,26,01,18,12.60
2020,07,26,01,19,12.60
2020,07,26,01,20,12.60
2020,07,26,01,21,12.60
2020,07,26,01,22,12.60
2020,07,26,01,23,12.60
2020,07,26,01,24,12.60
2020,07,26,01,25,12.60
2020,07,26,01,26,12.60
2020,07,26,01,27,12.60
2020,07,26,01,28,12.60
2020,07,26,01,29,12.60
2020,07,26,01,30,12.60
2020,07,26,01,31,12.60
2020,07,26,01,32,12.60
2020,07,26,01,33,12.60
2020,07,26,01,34,12.60
2020,07,26,01,35,12.60
2020,07,26,01,36,12.50
2020,07,26,01,37,12.50
2020,07,26,01,38,12.50
2020,07,26,01,39,12.50
2020,07,26,01,40,12.50
2020,07,26,01,41,12.50
2020,07,26,01,42,12.50
2020,07,26,01,43,12.40
2020,07,26,01,44,12.40
2020,07,26,01,45,12.40
2020,07,26,01,46,12.40
2020,07,26,01,47,12.40
2020,07,26,01,48,12.40
2020,07,26,01,49,12.40
2020,07,26,01,50,12.40
2020,07,26,01,51,12.40
2020,07,26,01,52,12.30
2020,07,26,01,53,12.30
2020,07,26,01,54,12.30
2020,07,26,01,55,12.30
2020,07,26,01,56,12.30
2020,07,26,01,57,12.30
2020,07,26,01,58,12.30
2020,07,26,01,59,12.30
2020,07,26,02,00,12.20
2020,07,26,02,01,12.20
2020,07,26,02,02,12.20
2020,07,26,02,03,12.20
2020,07,26,02,04,12.20
2020,07,26,02,05,12.20
2020,07,26,02,06,12.20
2020,07,26,02,07,12.20
2020,07,26,02,08,12.10
2020,07,26,02,09,12.10
2020,07,26,02,10,12.10
2020,07,26,02,11,12.10
2020,07,26,02,12,12.10
2020,07,26,02,13,12.10
2020,07,26,02,14,12.00
2020,07,26,02,15,12.00
2020,07,26,02,16,12.00
2020,07,26,02,17,12.00
2020,07,26,02,18,11.90
2020,07,26,02,19,11.90
2020,07,26,02,20,11.90
2020,07,26,02,21,11.90
2020,07,26,02,22,11.80
2020,07,26,02,23,11.80
2020,07,26,02,24,11.80
2020,07,26,02,25,11.80
2020,07,26,02,26,11.80
2020,07,26,02,27,11.80
2020,07,26,02,28,11.80
2020,07,26,02,29,11.70
2020,07,26,02,30,11.70
2020,07,26,02,31,11.70
2020,07,26,02,32,11.70
2020,07,26,02,33,11.60
2020,07,26,02,34,11.60
2020,07,26,02,35,11.60
2020,07,26,02,36,11.60
2020,07,26,02,37,11.60
2020,07,26,02,38,11.60
2020,07,26,02,39,11.60
2020,07,26,02,40,11.60
2020,07,26,02,41,11.60
2020,07,26,02,42,11.60
2020,07,26,02,43,11.60
2020,07,26,02,44,11.60
2020,07,26,02,45,11.50
2020,07,26,02,46,11.50
2020,07,26,02,47,11.50
2020,07,26,02,48,11.50
2020,07,26,02,49,11.50
2020,07,26,02,50,11.40
2020,07,26,02,51,11.40
2020,07,26,02,52,11.40
2020,07,26,02,53,11.40
2020,07,26,02,54,11.40
2020,07,26,02,55,11.40
2020,07,26,02,56,11.40
2020,07,26,02,57,11.40
2020,07,26,02,58,11.40
2020,07,26,02,59,11.40
2020,07,26,03,00,11.40
2020,07,26,03,01,11.40
2020,07,26,03,02,11.40
2020,07,26,03,03,11.40
2020,07,26,03,04,11.40
2020,07,26,03,05,11.40
2020,07,26,03,06,11.40
2020,07,26,03,07,11.40
2020,07,26,03,08,11.40
2020,07,26,03,09,11.40
2020,07,26,03,10,11.40
2020,07,26,03,11,11.40
2020,07,26,03,12,11.40
2020,07,26,03,13,11.40
2020,07,26,03,14,11.40
2020,07,26,03,15,11.40
2020,07,26,03,16,11.40
2020,07,26,03,17,11.40
2020,07,26,03,18,11.40
2020,07,26,03,19,11.40
2020,07,26,03,20,11.40
2020,07,26,03,21,11.40
2020,07,26,03,22,11.40
2020,07,26,03,23,11.30
2020,07,26,03,24,11.30
2020,07,26,03,25,11.30
2020,07,26,03,26,11.30
2020,07,26,03,27,11.30
2020,07,26,03,28,11.30
2020,07,26,03,29,11.30
2020,07,26,03,30,11.30
2020,07,26,03,31,11.30
2020,07,26,03,32,11.30
2020,07,26,03,33,11.30
2020,07,26,03,34,11.30
2020,07,26,03,35,11.30
2020,07,26,03,36,11.30
2020,07,26,03,37,11.30
2020,07,26,03,38,11.30
2020,07,26,03,39,11.30
2020,07,26,03,40,11.30
2020,07,26,03,41,11.30
2020,07,26,03,42,11.30
2020,07,26,03,43,11.30
2020,07,26,03,44,11.20
2020,07,26,03,45,11.20
2020,07,26,03,46,11.20
2020,07,26,03,47,11.20
2020,07,26,03,48,11.20
2020,07,26,03,49,11.20
2020,07,26,03,50,11.20
2020,07,26,03,51,11.20
2020,07,26,03,52,11.20
2020,07,26,03,53,11.20
2020,07,26,03,54,11.10
2020,07,26,03,55,11.10
2020,07,26,03,56,11.10
2020,07,26,03,57,11.10
2020,07,26,03,58,11.10
2020,07,26,03,59,11.10
2020,07,26,04,00,11.10
2020,07,26,04,01,11.10
2020,07,26,04,02,11.10
2020,07,26,04,03,11.10
2020,07,26,04,04,11.00
2020,07,26,04,05,11.00
2020,07,26,04,06,11.00
2020,07,26,04,07,11.00
2020,07,26,04,08,11.00
2020,07,26,04,09,11.00
2020,07,26,04,10,11.00
2020,07,26,04,11,11.00
2020,07,26,04,12,10.90
2020,07,26,04,13,10.90
2020,07,26,04,14,10.90
2020,07,26,04,15,10.90
2020,07,26,04,16,10.90
2020,07,26,04,17,10.90
2020,07,26,04,18,10.90
2020,07,26,04,19,10.90
2020,07,26,04,20,10.80
2020,07,26,04,21,10.80
2020,07,26,04,22,10.80
2020,07,26,04,23,10.80
2020,07,26,04,24,10.80
2020,07,26,04,25,10.80
2020,07,26,04,26,10.80
2020,07,26,04,27,10.80
2020,07,26,04,28,10.80
2020,07,26,04,29,10.80
2020,07,26,04,30,10.80
2020,07,26,04,31,10.70
2020,07,26,04,32,10.70
2020,07,26,04,33,10.70
2020,07,26,04,34,10.70
2020,07,26,04,35,10.70
2020,07,26,04,36,10.70
2020,07,26,04,37,10.70
2020,07,26,04,38,10.80
2020,07,26,04,39,10.80
2020,07,26,04,40,10.70
2020,07,26,04,41,10.80
2020,07,26,04,42,10.80
2020,07,26,04,43,10.80
2020,07,26,04,44,10.70
2020,07,26,04,45,10.70
2020,07,26,04,46,10.70
2020,07,26,04,47,10.70
2020,07,26,04,48,10.70
2020,07,26,04,49,10.70
2020,07,26,04,50,10.70
2020,07,26,04,51,10.70
2020,07,26,04,52,10.70
2020,07,26,04,53,10.70
2020,07,26,04,54,10.70
2020,07,26,04,55,10.70
2020,07,26,04,56,10.60
2020,07,26,04,57,10.60
2020,07,26,04,58,10.60
2020,07,26,04,59,10.60
2020,07,26,05,00,10.60
2020,07,26,05,01,10.60
2020,07,26,05,02,10.60
2020,07,26,05,03,10.60
2020,07,26,05,04,10.60
2020,07,26,05,05,10.60
2020,07,26,05,06,10.50
2020,07,26,05,07,10.50
2020,07,26,05,08,10.50
2020,07,26,05,09,10.50
2020,07,26,05,10,10.50
2020,07,26,05,11,10.50
2020,07,26,05,12,10.50
2020,07,26,05,13,10.40
2020,07,26,05,14,10.50
2020,07,26,05,15,10.50
2020,07,26,05,16,10.50
2020,07,26,05,17,10.40
2020,07,26,05,18,10.40
2020,07,26,05,19,10.50
2020,07,26,05,20,10.50
2020,07,26,05,21,10.40
2020,07,26,05,22,10.50
2020,07,26,05,23,10.50
2020,07,26,05,24,10.50
2020,07,26,05,25,10.50
2020,07,26,05,26,10.50
2020,07,26,05,27,10.50
2020,07,26,05,28,10.50
2020,07,26,05,29,10.50
2020,07,26,05,30,10.50
2020,07,26,05,31,10.50
2020,07,26,05,32,10.50
2020,07,26,05,33,10.50
2020,07,26,05,34,10.50
2020,07,26,05,35,10.50
2020,07,26,05,36,10.50
2020,07,26,05,37,10.50
2020,07,26,05,38,10.50
2020,07,26,05,39,10.50
2020,07,26,05,40,10.50
2020,07,26,05,41,10.50
2020,07,26,05,42,10.50
2020,07,26,05,43,10.50
2020,07,26,05,44,10.50
2020,07,26,05,45,10.50
2020,07,26,05,46,10.50
2020,07,26,05,47,10.50
2020,07,26,05,48,10.50
2020,07,26,05,49,10.50
2020,07,26,05,50,10.50
2020,07,26,05,51,10.50
2020,07,26,05,52,10.50
2020,07,26,05,53,10.60
2020,07,26,05,54,10.60
2020,07,26,05,55,10.60
2020,07,26,05,56,10.60
2020,07,26,05,57,10.60
2020,07,26,05,58,10.60
2020,07,26,05,59,10.60
2020,07,26,06,00,10.60
2020,07,26,06,01,10.60
2020,07,26,06,02,10.60
2020,07,26,06,03,10.60
2020,07,26,06,04,10.60
2020,07,26,06,05,10.70
2020,07,26,06,06,10.70
2020,07,26,06,07,10.70
2020,07,26,06,08,10.70
2020,07,26,06,09,10.70
2020,07,26,06,10,10.80
2020,07,26,06,11,10.80
2020,07,26,06,12,10.80
2020,07,26,06,13,10.80
2020,07,26,06,14,10.80
2020,07,26,06,15,10.80
2020,07,26,06,16,10.90
2020,07,26,06,17,10.90
2020,07,26,06,18,10.90
2020,07,26,06,19,10.90
2020,07,26,06,20,11.00
2020,07,26,06,21,11.00
2020,07,26,06,22,11.10
2020,07,26,06,23,11.10
2020,07,26,06,24,11.20
2020,07,26,06,25,11.20
2020,07,26,06,26,11.30
2020,07,26,06,27,11.30
2020,07,26,06,28,11.30
2020,07,26,06,29,11.30
2020,07,26,06,30,11.40
2020,07,26,06,31,11.40
2020,07,26,06,32,11.40
2020,07,26,06,33,11.40
2020,07,26,06,34,11.50
2020,07,26,06,35,11.50
2020,07,26,06,36,11.50
2020,07,26,06,37,11.60
2020,07,26,06,38,11.60
2020,07,26,06,39,11.70
2020,07,26,06,40,11.70
2020,07,26,06,41,11.70
2020,07,26,06,42,11.80
2020,07,26,06,43,11.80
2020,07,26,06,44,11.80
2020,07,26,06,45,11.90
2020,07,26,06,46,11.90
2020,07,26,06,47,12.00
2020,07,26,06,48,12.00
2020,07,26,06,49,12.10
2020,07,26,06,50,12.10
2020,07,26,06,51,12.10
2020,07,26,06,52,12.20
2020,07,26,06,53,12.20
2020,07,26,06,54,12.20
2020,07,26,06,55,12.30
2020,07,26,06,56,12.30
2020,07,26,06,57,12.40
2020,07,26,06,58,12.40
2020,07,26,06,59,12.40
2020,07,26,07,00,12.50
2020,07,26,07,01,12.60
2020,07,26,07,02,12.60
2020,07,26,07,03,12.60
2020,07,26,07,04,12.70
2020,07,26,07,05,12.70
2020,07,26,07,06,12.70
2020,07,26,07,07,12.80
2020,07,26,07,08,12.80
2020,07,26,07,09,12.80
2020,07,26,07,10,12.80
2020,07,26,07,11,12.80
2020,07,26,07,12,12.90
2020,07,26,07,13,12.90
2020,07,26,07,14,12.90
2020,07,26,07,15,12.90
2020,07,26,07,16,13.00
2020,07,26,07,17,13.00
2020,07,26,07,18,13.00
2020,07,26,07,19,13.10
2020,07,26,07,20,13.10
2020,07,26,07,21,13.10
2020,07,26,07,22,13.10
2020,07,26,07,23,13.20
2020,07,26,07,24,13.20
2020,07,26,07,25,13.20
2020,07,26,07,26,13.20
2020,07,26,07,27,13.20
2020,07,26,07,28,13.30
2020,07,26,07,29,13.30
2020,07,26,07,30,13.30
2020,07,26,07,31,13.40
2020,07,26,07,32,13.40
2020,07,26,07,33,13.40
2020,07,26,07,34,13.40
2020,07,26,07,35,13.50
2020,07,26,07,36,13.50
2020,07,26,07,37,13.50
2020,07,26,07,38,13.60
2020,07,26,07,39,13.60
2020,07,26,07,40,13.60
2020,07,26,07,41,13.70
2020,07,26,07,42,13.70
2020,07,26,07,43,13.70
2020,07,26,07,44,13.70
2020,07,26,07,45,13.80
2020,07,26,07,46,13.80
2020,07,26,07,47,13.90
2020,07,26,07,48,13.90
2020,07,26,07,49,13.90
2020,07,26,07,50,13.90
2020,07,26,07,51,14.00
2020,07,26,07,52,14.00
2020,07,26,07,53,14.00
2020,07,26,07,54,14.10
2020,07,26,07,55,14.10
2020,07,26,07,56,14.20
2020,07,26,07,57,14.20
2020,07,26,07,58,14.20
2020,07,26,07,59,14.30
2020,07,26,08,00,14.30
2020,07,26,08,01,14.40
2020,07,26,08,02,14.40
2020,07,26,08,03,14.40
2020,07,26,08,04,14.40
2020,07,26,08,05,14.50
2020,07,26,08,06,14.50
2020,07,26,08,07,14.50
2020,07,26,08,08,14.60
2020,07,26,08,09,14.60
2020,07,26,08,10,14.60
2020,07,26,08,11,14.70
2020,07,26,08,12,14.70
2020,07,26,08,13,14.70
2020,07,26,08,14,14.80
2020,07,26,08,15,14.80
2020,07,26,08,16,14.80
2020,07,26,08,17,14.90
2020,07,26,08,18,14.90
2020,07,26,08,19,14.90
2020,07,26,08,20,15.00
2020,07,26,08,21,15.00
2020,07,26,08,22,15.10
2020,07,26,08,23,15.10
2020,07,26,08,24,15.10
2020,07,26,08,25,15.20
2020,07,26,08,26,15.20
2020,07,26,08,27,15.20
2020,07,26,08,28,15.30
2020,07,26,08,29,15.30
2020,07,26,08,30,15.40
2020,07,26,08,31,15.40
2020,07,26,08,32,15.50
2020,07,26,08,33,15.50
2020,07,26,08,34,15.60
2020,07,26,08,35,15.60
2020,07,26,08,36,15.70
2020,07,26,08,37,15.80
2020,07,26,08,38,15.80
2020,07,26,08,39,15.90
2020,07,26,08,40,15.90
2020,07,26,08,41,16.00
2020,07,26,08,42,16.10
2020,07,26,08,43,16.20
2020,07,26,08,44,16.20
2020,07,26,08,45,16.30
2020,07,26,08,46,16.30
2020,07,26,08,47,16.40
2020,07,26,08,48,16.50
2020,07,26,08,49,16.60
2020,07,26,08,50,16.70
2020,07,26,08,51,16.80
2020,07,26,08,52,16.90
2020,07,26,08,53,17.00
2020,07,26,08,54,17.20
2020,07,26,08,55,17.30
2020,07,26,08,56,17.40
2020,07,26,08,57,17.50
2020,07,26,08,58,17.60
2020,07,26,08,59,17.70
2020,07,26,09,00,17.80
2020,07,26,09,01,17.90
2020,07,26,09,02,18.00
2020,07,26,09,03,18.10
2020,07,26,09,04,18.20
2020,07,26,09,05,18.30
2020,07,26,09,06,18.40
2020,07,26,09,07,18.40
2020,07,26,09,08,18.50
2020,07,26,09,09,18.60
2020,07,26,09,10,18.60
2020,07,26,09,11,18.70
2020,07,26,09,12,18.80
2020,07,26,09,13,18.80
2020,07,26,09,14,18.90
2020,07,26,09,15,18.90
2020,07,26,09,16,19.00
2020,07,26,09,17,19.10
2020,07,26,09,18,19.10
2020,07,26,09,19,19.20
2020,07,26,09,20,19.30
2020,07,26,09,21,19.30
2020,07,26,09,22,19.40
2020,07,26,09,23,19.40
2020,07,26,09,24,19.50
2020,07,26,09,25,19.60
2020,07,26,09,26,19.60
2020,07,26,09,27,19.70
2020,07,26,09,28,19.70
2020,07,26,09,29,19.70
2020,07,26,09,30,19.80
2020,07,26,09,31,19.80
2020,07,26,09,32,19.80
2020,07,26,09,33,19.90
2020,07,26,09,34,19.90
2020,07,26,09,35,19.90
2020,07,26,09,36,20.00
2020,07,26,09,37,20.00
2020,07,26,09,38,20.10
2020,07,26,09,39,20.10
2020,07,26,09,40,20.10
2020,07,26,09,41,20.20
2020,07,26,09,42,20.20
2020,07,26,09,43,20.20
2020,07,26,09,44,20.30
2020,07,26,09,45,20.30
2020,07,26,09,46,20.30
2020,07,26,09,47,20.30
2020,07,26,09,48,20.20
2020,07,26,09,49,20.30
2020,07,26,09,50,20.30
2020,07,26,09,51,20.30
2020,07,26,09,52,20.30
2020,07,26,09,53,20.30
2020,07,26,09,54,20.30
2020,07,26,09,55,20.30
2020,07,26,09,56,20.30
2020,07,26,09,57,20.40
2020,07,26,09,58,20.40
2020,07,26,09,59,20.40
2020,07,26,10,00,20.50
2020,07,26,10,01,20.50
2020,07,26,10,02,20.50
2020,07,26,10,03,20.60
2020,07,26,10,04,20.60
2020,07,26,10,05,20.70
2020,07,26,10,06,20.70
2020,07,26,10,07,20.70
2020,07,26,10,08,20.70
2020,07,26,10,09,20.70
2020,07,26,10,10,20.70
2020,07,26,10,11,20.70
2020,07,26,10,12,20.70
2020,07,26,10,13,20.70
2020,07,26,10,14,20.70
2020,07,26,10,15,20.80
2020,07,26,10,16,20.80
2020,07,26,10,17,20.80
2020,07,26,10,18,20.80
2020,07,26,10,19,20.80
2020,07,26,10,20,20.80
2020,07,26,10,21,20.80
2020,07,26,10,22,20.80
2020,07,26,10,23,20.70
2020,07,26,10,24,20.70
2020,07,26,10,25,20.60
2020,07,26,10,26,20.60
2020,07,26,10,27,20.60
2020,07,26,10,28,20.60
2020,07,26,10,29,20.60
2020,07,26,10,30,20.60
2020,07,26,10,31,20.70
2020,07,26,10,32,20.70
2020,07,26,10,33,20.80
2020,07,26,10,34,20.80
2020,07,26,10,35,20.80
2020,07,26,10,36,20.90
2020,07,26,10,37,20.90
2020,07,26,10,38,21.00
2020,07,26,10,39,21.10
2020,07,26,10,40,21.20
2020,07,26,10,41,21.30
2020,07,26,10,42,21.30
2020,07,26,10,43,21.40
2020,07,26,10,44,21.50
2020,07,26,10,45,21.60
2020,07,26,10,46,21.60
2020,07,26,10,47,21.60
2020,07,26,10,48,21.60
2020,07,26,10,49,21.60
2020,07,26,10,50,21.60
2020,07,26,10,51,21.60
2020,07,26,10,52,21.60
2020,07,26,10,53,21.60
2020,07,26,10,54,21.70
2020,07,26,10,55,21.70
2020,07,26,10,56,21.70
2020,07,26,10,57,21.80
2020,07,26,10,58,21.80
2020,07,26,10,59,21.80
2020,07,26,11,00,21.80
2020,07,26,11,01,21.80
2020,07,26,11,02,21.80
2020,07,26,11,03,21.80
2020,07,26,11,04,21.80
2020,07,26,11,05,21.80
2020,07,26,11,06,21.80
2020,07,26,11,07,21.80
2020,07,26,11,08,21.70
2020,07,26,11,09,21.70
2020,07,26,11,10,21.70
2020,07,26,11,11,21.60
2020,07,26,11,12,21.70
2020,07,26,11,13,21.70
2020,07,26,11,14,21.80
2020,07,26,11,15,21.90
2020,07,26,11,16,22.00
2020,07,26,11,17,22.10
2020,07,26,11,18,22.20
2020,07,26,11,19,22.30
2020,07,26,11,20,22.40
2020,07,26,11,21,22.50
2020,07,26,11,22,22.50
2020,07,26,11,23,22.60
2020,07,26,11,24,22.70
2020,07,26,11,25,22.70
2020,07,26,11,26,22.80
2020,07,26,11,27,22.90
2020,07,26,11,28,22.90
2020,07,26,11,29,22.90
2020,07,26,11,30,23.00
2020,07,26,11,31,23.00
2020,07,26,11,32,23.00
2020,07,26,11,33,23.00
2020,07,26,11,34,23.00
2020,07,26,11,35,23.00
2020,07,26,11,36,23.00
2020,07,26,11,37,23.10
2020,07,26,11,38,23.10
2020,07,26,11,39,23.10
2020,07,26,11,40,23.20
2020,07,26,11,41,23.30
2020,07,26,11,42,23.30
2020,07,26,11,43,23.40
2020,07,26,11,44,23.60
2020,07,26,11,45,23.70
2020,07,26,11,46,23.80
2020,07,26,11,47,23.90
2020,07,26,11,48,24.00
2020,07,26,11,49,24.10
2020,07,26,11,50,24.10
2020,07,26,11,51,24.20
2020,07,26,11,52,24.20
2020,07,26,11,53,24.20
2020,07,26,11,54,24.20
2020,07,26,11,55,24.20
2020,07,26,11,56,24.20
2020,07,26,11,57,24.30
2020,07,26,11,58,24.30
2020,07,26,11,59,24.40
2020,07,26,12,00,24.50
2020,07,26,12,01,24.60
2020,07,26,12,02,24.70
2020,07,26,12,03,24.80
2020,07,26,12,04,24.80
2020,07,26,12,05,24.80
2020,07,26,12,06,24.80
2020,07,26,12,07,24.80
2020,07,26,12,08,24.80
2020,07,26,12,09,24.80
2020,07,26,12,10,24.80
2020,07,26,12,11,24.80
2020,07,26,12,12,24.70
2020,07,26,12,13,24.60
2020,07,26,12,14,24.60
2020,07,26,12,15,24.60
2020,07,26,12,16,24.60
2020,07,26,12,17,24.60
2020,07,26,12,18,24.60
2020,07,26,12,19,24.60
2020,07,26,12,20,24.60
2020,07,26,12,21,24.60
2020,07,26,12,22,24.60
2020,07,26,12,23,24.60
2020,07,26,12,24,24.60
2020,07,26,12,25,24.70
2020,07,26,12,26,24.80
2020,07,26,12,27,24.80
2020,07,26,12,28,24.90
2020,07,26,12,29,24.90
2020,07,26,12,30,25.00
2020,07,26,12,31,25.10
2020,07,26,12,32,25.20
2020,07,26,12,33,25.20
2020,07,26,12,34,25.30
2020,07,26,12,35,25.30
2020,07,26,12,36,25.40
2020,07,26,12,37,25.50
2020,07,26,12,38,25.50
2020,07,26,12,39,25.60
2020,07,26,12,40,25.60
2020,07,26,12,41,25.70
2020,07,26,12,42,25.70
2020,07,26,12,43,25.60
2020,07,26,12,44,25.60
2020,07,26,12,45,25.60
2020,07,26,12,46,25.60
2020,07,26,12,47,25.60
2020,07,26,12,48,25.60
2020,07,26,12,49,25.60
2020,07,26,12,50,25.70
2020,07,26,12,51,25.70
2020,07,26,12,52,25.70
2020,07,26,12,53,25.70
2020,07,26,12,54,25.70
2020,07,26,12,55,25.70
2020,07,26,12,56,25.70
2020,07,26,12,57,25.80
2020,07,26,12,58,25.80
2020,07,26,12,59,25.80
2020,07,26,13,00,25.80
2020,07,26,13,01,25.90
2020,07,26,13,02,25.90
2020,07,26,13,03,25.90
2020,07,26,13,04,26.00
2020,07,26,13,05,26.10
2020,07,26,13,06,26.10
2020,07,26,13,07,26.20
2020,07,26,13,08,26.30
2020,07,26,13,09,26.30
2020,07,26,13,10,26.40
2020,07,26,13,11,26.50
2020,07,26,13,12,26.60
2020,07,26,13,13,26.70
2020,07,26,13,14,26.70
2020,07,26,13,15,26.80
2020,07,26,13,16,26.80
2020,07,26,13,17,26.90
2020,07,26,13,18,26.90
2020,07,26,13,19,27.00
2020,07,26,13,20,27.10
2020,07,26,13,21,27.10
2020,07,26,13,22,27.10
2020,07,26,13,23,27.10
2020,07,26,13,24,27.10
2020,07,26,13,25,27.10
2020,07,26,13,26,27.10
2020,07,26,13,27,27.00
2020,07,26,13,28,27.00
2020,07,26,13,29,26.90
2020,07,26,13,30,26.90
2020,07,26,13,31,26.90
2020,07,26,13,32,26.90
2020,07,26,13,33,26.90
2020,07,26,13,34,26.90
2020,07,26,13,35,27.00
2020,07,26,13,36,26.90
2020,07,26,13,37,26.90
2020,07,26,13,38,26.90
2020,07,26,13,39,27.00
2020,07,26,13,40,27.00
2020,07,26,13,41,26.90
2020,07,26,13,42,26.90
2020,07,26,13,43,27.00
2020,07,26,13,44,27.00
2020,07,26,13,45,27.00
2020,07,26,13,46,27.10
2020,07,26,13,47,27.10
2020,07,26,13,48,27.10
2020,07,26,13,49,27.10
2020,07,26,13,50,27.20
2020,07,26,13,51,27.20
2020,07,26,13,52,27.30
2020,07,26,13,53,27.30
2020,07,26,13,54,27.30
2020,07,26,13,55,27.30
2020,07,26,13,56,27.40
2020,07,26,13,57,27.40
2020,07,26,13,58,27.40
2020,07,26,13,59,27.40
2020,07,26,14,00,27.40
2020,07,26,14,01,27.40
2020,07,26,14,02,27.30
2020,07,26,14,03,27.30
2020,07,26,14,04,27.30
2020,07,26,14,05,27.30
2020,07,26,14,06,27.30
2020,07,26,14,07,27.20
2020,07,26,14,08,27.20
2020,07,26,14,09,27.20
2020,07,26,14,10,27.10
2020,07,26,14,11,27.20
2020,07,26,14,12,27.20
2020,07,26,14,13,27.20
2020,07,26,14,14,27.20
2020,07,26,14,15,27.10
2020,07,26,14,16,27.20
2020,07,26,14,17,27.20
2020,07,26,14,18,27.20
2020,07,26,14,19,27.10
2020,07,26,14,20,27.20
2020,07,26,14,21,27.20
2020,07,26,14,22,27.20
2020,07,26,14,23,27.20
2020,07,26,14,24,27.30
2020,07,26,14,25,27.30
2020,07,26,14,26,27.30
2020,07,26,14,27,27.40
2020,07,26,14,28,27.40
2020,07,26,14,29,27.50
2020,07,26,14,30,27.50
2020,07,26,14,31,27.50
2020,07,26,14,32,27.60
2020,07,26,14,33,27.60
2020,07,26,14,34,27.60
2020,07,26,14,35,27.60
2020,07,26,14,36,27.60
2020,07,26,14,37,27.70
2020,07,26,14,38,27.70
2020,07,26,14,39,27.70
2020,07,26,14,40,27.70
2020,07,26,14,41,27.80
2020,07,26,14,42,27.80
2020,07,26,14,43,27.80
2020,07,26,14,44,27.90
2020,07,26,14,45,27.90
2020,07,26,14,46,27.90
2020,07,26,14,47,28.00
2020,07,26,14,48,28.00
2020,07,26,14,49,28.00
2020,07,26,14,50,28.00
2020,07,26,14,51,28.00
2020,07,26,14,52,28.10
2020,07,26,14,53,28.10
2020,07,26,14,54,28.10
2020,07,26,14,55,28.10
2020,07,26,14,56,28.10
2020,07,26,14,57,28.10
2020,07,26,14,58,28.10
2020,07,26,14,59,28.10
2020,07,26,15,00,28.10
2020,07,26,15,01,28.10
2020,07,26,15,02,28.10
2020,07,26,15,03,28.10
2020,07,26,15,04,28.10
2020,07,26,15,05,28.10
2020,07,26,15,06,28.10
2020,07,26,15,07,28.10
2020,07,26,15,08,28.20
2020,07,26,15,09,28.20
2020,07,26,15,10,28.30
2020,07,26,15,11,28.30
2020,07,26,15,12,28.30
2020,07,26,15,13,28.30
2020,07,26,15,14,28.40
2020,07,26,15,15,28.40
2020,07,26,15,16,28.30
2020,07,26,15,17,28.30
2020,07,26,15,18,28.30
2020,07,26,15,19,28.30
2020,07,26,15,20,28.20
2020,07,26,15,21,28.20
2020,07,26,15,22,28.20
2020,07,26,15,23,28.20
2020,07,26,15,24,28.20
2020,07,26,15,25,28.20
2020,07,26,15,26,28.20
2020,07,26,15,27,28.10
2020,07,26,15,28,28.10
2020,07,26,15,29,28.00
2020,07,26,15,30,28.00
2020,07,26,15,31,28.00
2020,07,26,15,32,28.00
2020,07,26,15,33,28.00
2020,07,26,15,34,28.00
2020,07,26,15,35,28.00
2020,07,26,15,36,28.10
2020,07,26,15,37,28.20
2020,07,26,15,38,28.20
2020,07,26,15,39,28.30
2020,07,26,15,40,28.20
2020,07,26,15,41,28.20
2020,07,26,15,42,28.20
2020,07,26,15,43,28.10
2020,07,26,15,44,28.10
2020,07,26,15,45,28.00
2020,07,26,15,46,27.90
2020,07,26,15,47,27.80
2020,07,26,15,48,27.80
2020,07,26,15,49,27.80
2020,07,26,15,50,27.80
2020,07,26,15,51,27.80
2020,07,26,15,52,27.80
2020,07,26,15,53,27.80
2020,07,26,15,54,27.70
2020,07,26,15,55,27.70
2020,07,26,15,56,27.70
2020,07,26,15,57,27.70
2020,07,26,15,58,27.60
2020,07,26,15,59,27.60
2020,07,26,16,00,27.60
2020,07,26,16,01,27.60
2020,07,26,16,02,27.60
2020,07,26,16,03,27.60
2020,07,26,16,04,27.70
2020,07,26,16,05,27.70
2020,07,26,16,06,27.80
2020,07,26,16,07,27.80
2020,07,26,16,08,27.90
2020,07,26,16,09,27.90
2020,07,26,16,10,27.90
2020,07,26,16,11,27.90
2020,07,26,16,12,27.90
2020,07,26,16,13,27.90
2020,07,26,16,14,27.80
2020,07,26,16,15,27.80
2020,07,26,16,16,27.80
2020,07,26,16,17,27.80
2020,07,26,16,18,27.80
2020,07,26,16,19,27.80
2020,07,26,16,20,27.90
2020,07,26,16,21,27.90
2020,07,26,16,22,27.90
2020,07,26,16,23,27.90
2020,07,26,16,24,27.90
2020,07,26,16,25,28.00
2020,07,26,16,26,27.90
2020,07,26,16,27,28.00
2020,07,26,16,28,27.90
2020,07,26,16,29,27.90
2020,07,26,16,30,27.90
2020,07,26,16,31,27.90
2020,07,26,16,32,27.90
2020,07,26,16,33,27.90
2020,07,26,16,34,27.90
2020,07,26,16,35,27.90
2020,07,26,16,36,27.90
2020,07,26,16,37,27.80
2020,07,26,16,38,27.80
2020,07,26,16,39,27.80
2020,07,26,16,40,27.80
2020,07,26,16,41,27.80
2020,07,26,16,42,27.80
2020,07,26,16,43,27.80
2020,07,26,16,44,27.70
2020,07,26,16,45,27.70
2020,07,26,16,46,27.70
2020,07,26,16,47,27.60
2020,07,26,16,48,27.60
2020,07,26,16,49,27.60
2020,07,26,16,50,27.50
2020,07,26,16,51,27.40
2020,07,26,16,52,27.30
2020,07,26,16,53,27.30
2020,07,26,16,54,27.30
2020,07,26,16,55,27.30
2020,07,26,16,56,27.30
2020,07,26,16,57,27.30
2020,07,26,16,58,27.30
2020,07,26,16,59,27.20
2020,07,26,17,00,27.20
2020,07,26,17,01,27.10
2020,07,26,17,02,27.10
2020,07,26,17,03,27.00
2020,07,26,17,04,26.90
2020,07,26,17,05,26.80
2020,07,26,17,06,26.80
2020,07,26,17,07,26.70
2020,07,26,17,08,26.70
2020,07,26,17,09,26.60
2020,07,26,17,10,26.60
2020,07,26,17,11,26.60
2020,07,26,17,12,26.60
2020,07,26,17,13,26.60
2020,07,26,17,14,26.60
2020,07,26,17,15,26.70
2020,07,26,17,16,26.70
2020,07,26,17,17,26.70
2020,07,26,17,18,26.70
2020,07,26,17,19,26.80